This is the latest recevied weather packets stored in our database for station/object N0MR. If no packets are shown the sender has not sent any weather packets the latest 10 day(s).
| Time | Temp. | Humidity | Pressure | Rain* | Wind** | Luminosity | Snow |
|---|---|---|---|---|---|---|---|
| 1777826520 | 15.56° C | 34% | 1003.8 hPa | 0 mm | - | - | - |
| 1777825920 | 15.56° C | 34% | 1003.8 hPa | 0 mm | - | - | - |
| 1777825320 | 15.56° C | 42% | 1003.8 hPa | 0 mm | - | - | - |
| 1777824719 | 15.56° C | 42% | 1003.8 hPa | 0 mm | - | - | - |
| 1777823521 | 13.89° C | 51% | 1003.8 hPa | 0 mm | - | - | - |
| 1777650711 | 5.56° C | 47% | 1020.4 hPa | 0 mm | - | - | - |
| 1777650113 | 5.56° C | 50% | 1020.5 hPa | 0 mm | - | - | - |
| 1777649512 | 5.56° C | 50% | 1020.5 hPa | 0 mm | - | - | - |
| 1777648913 | 4.44° C | 51% | 1020.6 hPa | 0 mm | - | - | - |
| 1777648312 | 4.44° C | 51% | 1020.6 hPa | 0 mm | - | - | - |
| 1777647713 | 4.44° C | 55% | 1020.6 hPa | 0 mm | - | - | - |
| 1777647112 | 3.33° C | 55% | 1020.8 hPa | 0 mm | - | - | - |
| 1777646513 | 3.33° C | 55% | 1020.8 hPa | 0 mm | - | - | - |
| 1777645912 | 3.33° C | 58% | 1020.7 hPa | 0 mm | - | - | - |
| 1777645312 | 3.33° C | 58% | 1020.7 hPa | 0 mm | - | - | - |
| 1777644713 | 2.78° C | 61% | 1020.8 hPa | 0 mm | - | - | - |
| 1777644113 | 2.78° C | 61% | 1020.8 hPa | 0 mm | - | - | - |
| 1777643513 | 1.67° C | 67% | 1020.7 hPa | 0 mm | - | - | - |
| 1777642912 | 1.67° C | 67% | 1020.7 hPa | 0 mm | - | - | - |
| 1777642313 | 0.56° C | 70% | 1020.6 hPa | 0 mm | - | - | - |
| 1777641713 | 0.56° C | 70% | 1020.6 hPa | 0 mm | - | - | - |
| 1777641138 | -0.56° C | 75% | 1020.6 hPa | 0 mm | - | - | - |
| 1777640513 | -0.56° C | 75% | 1020.6 hPa | 0 mm | - | - | - |
| 1777639914 | -1.11° C | 79% | 1020.4 hPa | 0 mm | - | - | - |
| 1777639313 | -1.11° C | 79% | 1020.4 hPa | 0 mm | - | - | - |
* Rain latest hour (hover to see other rain measurements)
** Current wind speed in m/s (hover to see current wind gust speed)